owner,sensor,date,latitude,longitude,vertical_datum,sea_water_practical_salinity,qcFlag 
DISL,ioos:station:DISL:KATA:1,2019-01-01T06:30:00Z,30.2583,-88.2131,3.476,21.88,1111122 
DISL,ioos:station:DISL:KATA:1,2019-01-01T07:30:00Z,30.2583,-88.2131,3.476,21.88,1111122 
DISL,ioos:station:DISL:KATA:1,2019-01-01T08:30:00Z,30.2583,-88.2131,3.476,21.88,1111122 
DISL,ioos:station:DISL:KATA:1,2019-01-01T09:30:00Z,30.2583,-88.2131,3.476,21.88,1111122 
DISL,ioos:station:DISL:KATA:1,2019-01-01T10:30:00Z,30.2583,-88.2131,3.476,21.88,1111122 
DISL,ioos:station:DISL:KATA:1,2019-01-01T11:30:00Z,30.2583,-88.2131,3.476,21.88,1111122 
DISL,ioos:station:DISL:KATA:1,2019-01-01T12:30:00Z,30.2583,-88.2131,3.476,21.88,1111122 
DISL,ioos:station:DISL:KATA:1,2019-01-01T13:30:00Z,30.2583,-88.2131,3.476,21.88,1111122 
DISL,ioos:station:DISL:KATA:1,2019-01-01T14:30:00Z,30.2583,-88.2131,3.476,21.88,1111122 
DISL,ioos:station:DISL:KATA:1,2019-01-01T15:30:00Z,30.2583,-88.2131,3.476,21.88,1111122 
DISL,ioos:station:DISL:KATA:1,2019-01-01T16:30:00Z,30.2583,-88.2131,3.476,21.88,1111122 
DISL,ioos:station:DISL:KATA:1,2019-01-01T17:30:00Z,30.2583,-88.2131,3.476,21.88,1111122 
DISL,ioos:station:DISL:KATA:1,2019-01-01T18:30:00Z,30.2583,-88.2131,3.476,21.88,1111122 
DISL,ioos:station:DISL:KATA:1,2019-01-01T19:30:00Z,30.2583,-88.2131,3.476,21.88,1111122 
DISL,ioos:station:DISL:KATA:1,2019-01-01T20:30:00Z,30.2583,-88.2131,3.476,21.88,1111122 
DISL,ioos:station:DISL:KATA:1,2019-01-01T21:30:00Z,30.2583,-88.2131,3.476,21.88,1111122 
DISL,ioos:station:DISL:KATA:1,2019-01-01T22:30:00Z,30.2583,-88.2131,3.476,21.88,1111122 
DISL,ioos:station:DISL:KATA:1,2019-01-01T23:30:00Z,30.2583,-88.2131,3.476,21.88,1111122 
DISL,ioos:station:DISL:KATA:1,2019-01-02T00:30:00Z,30.2583,-88.2131,3.476,21.88,1111122 
DISL,ioos:station:DISL:KATA:1,2019-01-02T01:30:00Z,30.2583,-88.2131,3.476,21.88,1111122 
DISL,ioos:station:DISL:KATA:1,2019-01-02T02:30:00Z,30.2583,-88.2131,3.476,21.88,1111122 
DISL,ioos:station:DISL:KATA:1,2019-01-02T03:30:00Z,30.2583,-88.2131,3.476,21.88,1111122 
DISL,ioos:station:DISL:KATA:1,2019-01-02T04:30:00Z,30.2583,-88.2131,3.476,21.88,1111122 
DISL,ioos:station:DISL:KATA:1,2019-01-02T05:30:00Z,30.2583,-88.2131,3.476,21.88,1111122 
DISL,ioos:station:DISL:KATA:1,2019-01-02T06:30:00Z,30.2583,-88.2131,3.476,21.88,1111122 
DISL,ioos:station:DISL:KATA:1,2019-01-02T07:30:00Z,30.2583,-88.2131,3.476,21.88,1111122 
DISL,ioos:station:DISL:KATA:1,2019-01-02T08:30:00Z,30.2583,-88.2131,3.476,21.88,1111122 
DISL,ioos:station:DISL:KATA:1,2019-01-02T09:30:00Z,30.2583,-88.2131,3.476,21.88,1111122 
DISL,ioos:station:DISL:KATA:1,2019-01-02T10:30:00Z,30.2583,-88.2131,3.476,21.88,1111122 
DISL,ioos:station:DISL:KATA:1,2019-01-02T11:30:00Z,30.2583,-88.2131,3.476,21.88,1111122 
DISL,ioos:station:DISL:KATA:1,2019-01-02T12:30:00Z,30.2583,-88.2131,3.476,21.88,1111122 
DISL,ioos:station:DISL:KATA:1,2019-01-02T13:30:00Z,30.2583,-88.2131,3.476,21.88,1111122 
DISL,ioos:station:DISL:KATA:1,2019-01-02T14:30:00Z,30.2583,-88.2131,3.476,21.88,1111122 
DISL,ioos:station:DISL:KATA:1,2019-01-02T15:30:00Z,30.2583,-88.2131,3.476,21.88,1111122 
DISL,ioos:station:DISL:KATA:1,2019-01-02T16:30:00Z,30.2583,-88.2131,3.476,21.88,1111122 
DISL,ioos:station:DISL:KATA:1,2019-01-02T17:30:00Z,30.2583,-88.2131,3.476,21.88,1111122 
DISL,ioos:station:DISL:KATA:1,2019-01-02T18:30:00Z,30.2583,-88.2131,3.476,21.88,1111122 
DISL,ioos:station:DISL:KATA:1,2019-01-02T19:30:00Z,30.2583,-88.2131,3.476,21.88,1111122 
DISL,ioos:station:DISL:KATA:1,2019-01-02T20:30:00Z,30.2583,-88.2131,3.476,21.88,1111122 
DISL,ioos:station:DISL:KATA:1,2019-01-02T21:30:00Z,30.2583,-88.2131,3.476,21.88,1111122 
DISL,ioos:station:DISL:KATA:1,2019-01-02T22:30:00Z,30.2583,-88.2131,3.476,21.88,1111122 
DISL,ioos:station:DISL:KATA:1,2019-01-02T23:30:00Z,30.2583,-88.2131,3.476,21.88,1111122 
DISL,ioos:station:DISL:KATA:1,2019-01-03T00:30:00Z,30.2583,-88.2131,3.476,21.88,1111122 
DISL,ioos:station:DISL:KATA:1,2019-01-03T01:30:00Z,30.2583,-88.2131,3.476,21.88,1111122 
DISL,ioos:station:DISL:KATA:1,2019-01-03T02:30:00Z,30.2583,-88.2131,3.476,21.88,1111122 
DISL,ioos:station:DISL:KATA:1,2019-01-03T03:30:00Z,30.2583,-88.2131,3.476,21.88,1111122 
DISL,ioos:station:DISL:KATA:1,2019-01-03T04:30:00Z,30.2583,-88.2131,3.476,21.88,1111122 
DISL,ioos:station:DISL:KATA:1,2019-01-03T05:30:00Z,30.2583,-88.2131,3.476,21.88,1111122 
DISL,ioos:station:DISL:KATA:1,2019-01-03T06:30:00Z,30.2583,-88.2131,3.476,21.88,1111122 
DISL,ioos:station:DISL:KATA:1,2019-01-03T07:30:00Z,30.2583,-88.2131,3.476,21.88,1111122 
DISL,ioos:station:DISL:KATA:1,2019-01-03T08:30:00Z,30.2583,-88.2131,3.476,21.88,1111122 
DISL,ioos:station:DISL:KATA:1,2019-01-03T09:30:00Z,30.2583,-88.2131,3.476,21.88,1111122 
DISL,ioos:station:DISL:KATA:1,2019-01-03T10:30:00Z,30.2583,-88.2131,3.476,21.88,1111122 
DISL,ioos:station:DISL:KATA:1,2019-01-03T11:30:00Z,30.2583,-88.2131,3.476,21.88,1111122 
DISL,ioos:station:DISL:KATA:1,2019-01-03T12:30:00Z,30.2583,-88.2131,3.476,21.88,1111122 
DISL,ioos:station:DISL:KATA:1,2019-01-03T13:30:00Z,30.2583,-88.2131,3.476,21.88,1111122 
DISL,ioos:station:DISL:KATA:1,2019-01-03T14:30:00Z,30.2583,-88.2131,3.476,21.88,1111122 
DISL,ioos:station:DISL:KATA:1,2019-01-03T15:30:00Z,30.2583,-88.2131,3.476,21.88,1111122 
DISL,ioos:station:DISL:KATA:1,2019-01-03T16:30:00Z,30.2583,-88.2131,3.476,21.88,1111122 
DISL,ioos:station:DISL:KATA:1,2019-01-03T17:30:00Z,30.2583,-88.2131,3.476,21.88,1111122 
DISL,ioos:station:DISL:KATA:1,2019-01-03T18:30:00Z,30.2583,-88.2131,3.476,21.88,1111122 
DISL,ioos:station:DISL:KATA:1,2019-01-03T19:30:00Z,30.2583,-88.2131,3.476,21.88,1111122 
DISL,ioos:station:DISL:KATA:1,2019-01-03T20:30:00Z,30.2583,-88.2131,3.476,21.88,1111122 
DISL,ioos:station:DISL:KATA:1,2019-01-03T21:30:00Z,30.2583,-88.2131,3.476,21.88,1111122 
DISL,ioos:station:DISL:KATA:1,2019-01-03T22:30:00Z,30.2583,-88.2131,3.476,21.88,1111122 
DISL,ioos:station:DISL:KATA:1,2019-01-03T23:30:00Z,30.2583,-88.2131,3.476,21.88,1111122 
DISL,ioos:station:DISL:KATA:1,2019-01-04T00:30:00Z,30.2583,-88.2131,3.476,21.88,1111122 
DISL,ioos:station:DISL:KATA:1,2019-01-04T01:30:00Z,30.2583,-88.2131,3.476,21.88,1111122 
DISL,ioos:station:DISL:KATA:1,2019-01-04T02:30:00Z,30.2583,-88.2131,3.476,21.88,1111122 
DISL,ioos:station:DISL:KATA:1,2019-01-04T03:30:00Z,30.2583,-88.2131,3.476,21.88,1111122 
DISL,ioos:station:DISL:KATA:1,2019-01-04T04:30:00Z,30.2583,-88.2131,3.476,21.88,1111122 
DISL,ioos:station:DISL:KATA:1,2019-01-04T05:30:00Z,30.2583,-88.2131,3.476,21.88,1111122 
DISL,ioos:station:DISL:KATA:1,2019-01-04T06:30:00Z,30.2583,-88.2131,3.476,21.88,1111122 
DISL,ioos:station:DISL:KATA:1,2019-01-04T07:30:00Z,30.2583,-88.2131,3.476,21.88,1111122 
DISL,ioos:station:DISL:KATA:1,2019-01-04T08:30:00Z,30.2583,-88.2131,3.476,21.88,1111122 
DISL,ioos:station:DISL:KATA:1,2019-01-04T09:30:00Z,30.2583,-88.2131,3.476,21.88,1111122 
DISL,ioos:station:DISL:KATA:1,2019-01-04T10:30:00Z,30.2583,-88.2131,3.476,21.88,1111122 
DISL,ioos:station:DISL:KATA:1,2019-01-04T11:30:00Z,30.2583,-88.2131,3.476,21.88,1111122 
DISL,ioos:station:DISL:KATA:1,2019-01-04T12:30:00Z,30.2583,-88.2131,3.476,21.88,1111122 
DISL,ioos:station:DISL:KATA:1,2019-01-04T13:30:00Z,30.2583,-88.2131,3.476,21.88,1111122 
DISL,ioos:station:DISL:KATA:1,2019-01-04T14:30:00Z,30.2583,-88.2131,3.476,21.88,1111122 
DISL,ioos:station:DISL:KATA:1,2019-01-04T15:30:00Z,30.2583,-88.2131,3.476,21.88,1111122 
DISL,ioos:station:DISL:KATA:1,2019-01-04T16:30:00Z,30.2583,-88.2131,3.476,21.88,1111122 
DISL,ioos:station:DISL:KATA:1,2019-01-04T17:30:00Z,30.2583,-88.2131,3.476,21.88,1111122 
DISL,ioos:station:DISL:KATA:1,2019-01-04T18:30:00Z,30.2583,-88.2131,3.476,21.88,1111122 
DISL,ioos:station:DISL:KATA:1,2019-01-04T19:30:00Z,30.2583,-88.2131,3.476,21.88,1111122 
DISL,ioos:station:DISL:KATA:1,2019-01-04T20:30:00Z,30.2583,-88.2131,3.476,21.88,1111122 
DISL,ioos:station:DISL:KATA:1,2019-01-04T21:30:00Z,30.2583,-88.2131,3.476,21.88,1111122 
DISL,ioos:station:DISL:KATA:1,2019-01-04T22:30:00Z,30.2583,-88.2131,3.476,21.88,1111122 
DISL,ioos:station:DISL:KATA:1,2019-01-04T23:30:00Z,30.2583,-88.2131,3.476,21.88,1111122 
DISL,ioos:station:DISL:KATA:1,2019-01-05T00:30:00Z,30.2583,-88.2131,3.476,21.88,1111122 
DISL,ioos:station:DISL:KATA:1,2019-01-05T01:30:00Z,30.2583,-88.2131,3.476,21.88,1111122 
DISL,ioos:station:DISL:KATA:1,2019-01-05T02:30:00Z,30.2583,-88.2131,3.476,21.88,1111122 
DISL,ioos:station:DISL:KATA:1,2019-01-05T03:30:00Z,30.2583,-88.2131,3.476,21.88,1111122 
DISL,ioos:station:DISL:KATA:1,2019-01-05T04:30:00Z,30.2583,-88.2131,3.476,21.88,1111122 
DISL,ioos:station:DISL:KATA:1,2019-01-05T05:30:00Z,30.2583,-88.2131,3.476,21.88,1111122 
DISL,ioos:station:DISL:KATA:1,2019-01-05T06:30:00Z,30.2583,-88.2131,3.476,21.88,1111122 
DISL,ioos:station:DISL:KATA:1,2019-01-05T07:30:00Z,30.2583,-88.2131,3.476,21.88,1111122 
DISL,ioos:station:DISL:KATA:1,2019-01-05T08:30:00Z,30.2583,-88.2131,3.476,21.88,1111122 
DISL,ioos:station:DISL:KATA:1,2019-01-05T09:30:00Z,30.2583,-88.2131,3.476,21.88,1111122 
DISL,ioos:station:DISL:KATA:1,2019-01-05T10:30:00Z,30.2583,-88.2131,3.476,21.88,1111122 
DISL,ioos:station:DISL:KATA:1,2019-01-05T11:30:00Z,30.2583,-88.2131,3.476,21.88,1111122 
DISL,ioos:station:DISL:KATA:1,2019-01-05T12:30:00Z,30.2583,-88.2131,3.476,21.88,1111122 
DISL,ioos:station:DISL:KATA:1,2019-01-05T13:30:00Z,30.2583,-88.2131,3.476,21.88,1111122 
DISL,ioos:station:DISL:KATA:1,2019-01-05T14:30:00Z,30.2583,-88.2131,3.476,21.88,1111122 
DISL,ioos:station:DISL:KATA:1,2019-01-05T15:30:00Z,30.2583,-88.2131,3.476,21.88,1111122 
DISL,ioos:station:DISL:KATA:1,2019-01-05T16:30:00Z,30.2583,-88.2131,3.476,21.88,1111122 
DISL,ioos:station:DISL:KATA:1,2019-01-05T17:30:00Z,30.2583,-88.2131,3.476,21.88,1111122 
DISL,ioos:station:DISL:KATA:1,2019-01-05T18:30:00Z,30.2583,-88.2131,3.476,21.88,1111122 
DISL,ioos:station:DISL:KATA:1,2019-01-05T19:30:00Z,30.2583,-88.2131,3.476,21.88,1111122 
DISL,ioos:station:DISL:KATA:1,2019-01-05T20:30:00Z,30.2583,-88.2131,3.476,21.88,1111122 
DISL,ioos:station:DISL:KATA:1,2019-01-05T21:30:00Z,30.2583,-88.2131,3.476,21.88,1111122 
DISL,ioos:station:DISL:KATA:1,2019-01-05T22:30:00Z,30.2583,-88.2131,3.476,21.88,1111122 
DISL,ioos:station:DISL:KATA:1,2019-01-05T23:30:00Z,30.2583,-88.2131,3.476,21.88,1111122 
DISL,ioos:station:DISL:KATA:1,2019-01-06T00:30:00Z,30.2583,-88.2131,3.476,21.88,1111122 
DISL,ioos:station:DISL:KATA:1,2019-01-06T01:30:00Z,30.2583,-88.2131,3.476,21.88,1111122 
DISL,ioos:station:DISL:KATA:1,2019-01-06T16:30:00Z,30.2583,-88.2131,3.476,21.88,1111122 
DISL,ioos:station:DISL:KATA:1,2019-01-06T17:30:00Z,30.2583,-88.2131,3.476,21.88,1111122 
DISL,ioos:station:DISL:KATA:1,2019-01-06T18:30:00Z,30.2583,-88.2131,3.476,21.88,1111122 
DISL,ioos:station:DISL:KATA:1,2019-01-06T19:30:00Z,30.2583,-88.2131,3.476,21.88,1111122 
DISL,ioos:station:DISL:KATA:1,2019-01-06T20:30:00Z,30.2583,-88.2131,3.476,21.88,1111122 
DISL,ioos:station:DISL:KATA:1,2019-01-06T21:30:00Z,30.2583,-88.2131,3.476,21.88,1111122 
DISL,ioos:station:DISL:KATA:1,2019-01-06T22:30:00Z,30.2583,-88.2131,3.476,21.88,1111122 
DISL,ioos:station:DISL:KATA:1,2019-01-06T23:30:00Z,30.2583,-88.2131,3.476,21.88,1111122 
DISL,ioos:station:DISL:KATA:1,2019-01-07T00:30:00Z,30.2583,-88.2131,3.476,21.88,1111122 
DISL,ioos:station:DISL:KATA:1,2019-01-07T01:30:00Z,30.2583,-88.2131,3.476,21.88,1111122 
DISL,ioos:station:DISL:KATA:1,2019-01-07T02:30:00Z,30.2583,-88.2131,3.476,21.88,1111122 
DISL,ioos:station:DISL:KATA:1,2019-01-07T03:30:00Z,30.2583,-88.2131,3.476,21.88,1111122 
DISL,ioos:station:DISL:KATA:1,2019-01-07T04:30:00Z,30.2583,-88.2131,3.476,21.88,1111122 
DISL,ioos:station:DISL:KATA:1,2019-01-07T05:30:00Z,30.2583,-88.2131,3.476,21.88,1111122 
DISL,ioos:station:DISL:KATA:1,2019-01-07T06:30:00Z,30.2583,-88.2131,3.476,21.88,1111122 
DISL,ioos:station:DISL:KATA:1,2019-01-07T15:30:00Z,30.2583,-88.2131,3.476,21.88,1111122 
DISL,ioos:station:DISL:KATA:1,2019-01-07T16:30:00Z,30.2583,-88.2131,3.476,21.88,1111122 
DISL,ioos:station:DISL:KATA:1,2019-01-07T17:30:00Z,30.2583,-88.2131,3.476,21.88,1111122 
DISL,ioos:station:DISL:KATA:1,2019-01-07T18:30:00Z,30.2583,-88.2131,3.476,21.88,1111122 
DISL,ioos:station:DISL:KATA:1,2019-01-07T19:30:00Z,30.2583,-88.2131,3.476,21.88,1111122 
DISL,ioos:station:DISL:KATA:1,2019-01-07T20:30:00Z,30.2583,-88.2131,3.476,21.88,1111122 
DISL,ioos:station:DISL:KATA:1,2019-01-07T21:30:00Z,30.2583,-88.2131,3.476,21.88,1111122 
DISL,ioos:station:DISL:KATA:1,2019-01-07T22:30:00Z,30.2583,-88.2131,3.476,21.88,1111122 
DISL,ioos:station:DISL:KATA:1,2019-01-07T23:30:00Z,30.2583,-88.2131,3.476,21.88,1111122 
DISL,ioos:station:DISL:KATA:1,2019-01-08T00:30:00Z,30.2583,-88.2131,3.476,21.88,1111122 
DISL,ioos:station:DISL:KATA:1,2019-01-08T01:30:00Z,30.2583,-88.2131,3.476,21.88,1111122 
DISL,ioos:station:DISL:KATA:1,2019-01-08T02:30:00Z,30.2583,-88.2131,3.476,21.88,1111122 
DISL,ioos:station:DISL:KATA:1,2019-01-08T03:30:00Z,30.2583,-88.2131,3.476,21.88,1111122 
DISL,ioos:station:DISL:KATA:1,2019-01-08T04:30:00Z,30.2583,-88.2131,3.476,21.88,1111122 
DISL,ioos:station:DISL:KATA:1,2019-01-08T05:30:00Z,30.2583,-88.2131,3.476,21.88,1111122 
DISL,ioos:station:DISL:KATA:1,2019-01-08T06:30:00Z,30.2583,-88.2131,3.476,21.88,1111122 
DISL,ioos:station:DISL:KATA:1,2019-01-08T07:30:00Z,30.2583,-88.2131,3.476,21.88,1111122 
DISL,ioos:station:DISL:KATA:1,2019-01-08T08:30:00Z,30.2583,-88.2131,3.476,21.88,1111122 
DISL,ioos:station:DISL:KATA:1,2019-01-08T09:30:00Z,30.2583,-88.2131,3.476,21.88,1111122 
DISL,ioos:station:DISL:KATA:1,2019-01-08T10:30:00Z,30.2583,-88.2131,3.476,21.88,1111122 
DISL,ioos:station:DISL:KATA:1,2019-01-08T11:30:00Z,30.2583,-88.2131,3.476,21.88,1111122 
DISL,ioos:station:DISL:KATA:1,2019-01-08T12:30:00Z,30.2583,-88.2131,3.476,21.88,1111122 
DISL,ioos:station:DISL:KATA:1,2019-01-08T13:30:00Z,30.2583,-88.2131,3.476,21.88,1111122 
DISL,ioos:station:DISL:KATA:1,2019-01-08T14:30:00Z,30.2583,-88.2131,3.476,21.88,1111122 
DISL,ioos:station:DISL:KATA:1,2019-01-08T15:30:00Z,30.2583,-88.2131,3.476,21.88,1111122 
DISL,ioos:station:DISL:KATA:1,2019-01-08T16:30:00Z,30.2583,-88.2131,3.476,21.88,1111122 
DISL,ioos:station:DISL:KATA:1,2019-01-08T17:30:00Z,30.2583,-88.2131,3.476,21.88,1111122 
DISL,ioos:station:DISL:KATA:1,2019-01-08T18:30:00Z,30.2583,-88.2131,3.476,21.88,1111122 
DISL,ioos:station:DISL:KATA:1,2019-01-08T19:30:00Z,30.2583,-88.2131,3.956,19.86,1111122 
DISL,ioos:station:DISL:KATA:1,2019-01-08T20:30:00Z,30.2583,-88.2131,4.014,19.93,1111122 
DISL,ioos:station:DISL:KATA:1,2019-01-08T21:30:00Z,30.2583,-88.2131,4.064,20.03,1111122 
DISL,ioos:station:DISL:KATA:1,2019-01-08T22:30:00Z,30.2583,-88.2131,4.095,20.04,1111122 
DISL,ioos:station:DISL:KATA:1,2019-01-08T23:30:00Z,30.2583,-88.2131,4.12,20.12,1111122 
DISL,ioos:station:DISL:KATA:1,2019-01-09T00:30:00Z,30.2583,-88.2131,4.142,20.16,1111122 
DISL,ioos:station:DISL:KATA:1,2019-01-09T01:30:00Z,30.2583,-88.2131,4.187,20.09,1111122 
DISL,ioos:station:DISL:KATA:1,2019-01-09T02:30:00Z,30.2583,-88.2131,4.269,19.97,1111122 
DISL,ioos:station:DISL:KATA:1,2019-01-09T03:30:00Z,30.2583,-88.2131,4.333,19.38,1111122 
DISL,ioos:station:DISL:KATA:1,2019-01-09T04:30:00Z,30.2583,-88.2131,4.317,19.8,1111122 
DISL,ioos:station:DISL:KATA:1,2019-01-09T05:30:00Z,30.2583,-88.2131,4.265,19.37,1111122 
DISL,ioos:station:DISL:KATA:1,2019-01-09T06:30:00Z,30.2583,-88.2131,4.191,19.05,1111122 
DISL,ioos:station:DISL:KATA:1,2019-01-09T07:30:00Z,30.2583,-88.2131,4.153,18.63,1111122 
DISL,ioos:station:DISL:KATA:1,2019-01-09T08:30:00Z,30.2583,-88.2131,4.092,18.24,1111122 
DISL,ioos:station:DISL:KATA:1,2019-01-09T09:30:00Z,30.2583,-88.2131,3.985,17.81,1111122 
DISL,ioos:station:DISL:KATA:1,2019-01-09T10:30:00Z,30.2583,-88.2131,3.825,14.79,1111122 
DISL,ioos:station:DISL:KATA:1,2019-01-09T11:30:00Z,30.2583,-88.2131,3.71,8.4,1111122 
DISL,ioos:station:DISL:KATA:1,2019-01-09T12:30:00Z,30.2583,-88.2131,3.587,13.39,1111122 
DISL,ioos:station:DISL:KATA:1,2019-01-09T13:30:00Z,30.2583,-88.2131,3.52,12.4,1111122 
DISL,ioos:station:DISL:KATA:1,2019-01-09T14:30:00Z,30.2583,-88.2131,3.535,15.52,1111122 
DISL,ioos:station:DISL:KATA:1,2019-01-09T17:30:00Z,30.2583,-88.2131,3.646,19.02,1111122 
DISL,ioos:station:DISL:KATA:1,2019-01-09T18:30:00Z,30.2583,-88.2131,3.717,18.84,1111122 
DISL,ioos:station:DISL:KATA:1,2019-01-09T19:30:00Z,30.2583,-88.2131,3.8,18.85,1111122 
DISL,ioos:station:DISL:KATA:1,2019-01-09T20:30:00Z,30.2583,-88.2131,3.868,18.79,1111122 
DISL,ioos:station:DISL:KATA:1,2019-01-09T21:30:00Z,30.2583,-88.2131,3.901,18.74,1111122 
DISL,ioos:station:DISL:KATA:1,2019-01-09T22:30:00Z,30.2583,-88.2131,3.893,18.5,1111122 
DISL,ioos:station:DISL:KATA:1,2019-01-09T23:30:00Z,30.2583,-88.2131,3.892,18.07,1111122 
DISL,ioos:station:DISL:KATA:1,2019-01-10T00:30:00Z,30.2583,-88.2131,3.908,17.84,1111122 
DISL,ioos:station:DISL:KATA:1,2019-01-10T01:30:00Z,30.2583,-88.2131,3.989,17.91,1111122 
DISL,ioos:station:DISL:KATA:1,2019-01-10T02:30:00Z,30.2583,-88.2131,4.082,17.69,1111122 
DISL,ioos:station:DISL:KATA:1,2019-01-10T03:30:00Z,30.2583,-88.2131,4.121,18.18,1111122 
DISL,ioos:station:DISL:KATA:1,2019-01-10T04:30:00Z,30.2583,-88.2131,4.103,18.2,1111122 
DISL,ioos:station:DISL:KATA:1,2019-01-10T05:30:00Z,30.2583,-88.2131,4.022,17.82,1111122 
DISL,ioos:station:DISL:KATA:1,2019-01-10T06:30:00Z,30.2583,-88.2131,3.99,17.1,1111122 
DISL,ioos:station:DISL:KATA:1,2019-01-10T07:30:00Z,30.2583,-88.2131,3.984,17.26,1111122 
DISL,ioos:station:DISL:KATA:1,2019-01-10T08:30:00Z,30.2583,-88.2131,3.998,17.05,1111122 
DISL,ioos:station:DISL:KATA:1,2019-01-10T09:30:00Z,30.2583,-88.2131,3.971,17.04,1111122 
DISL,ioos:station:DISL:KATA:1,2019-01-10T10:30:00Z,30.2583,-88.2131,3.879,17.26,1111122 
DISL,ioos:station:DISL:KATA:1,2019-01-10T11:30:00Z,30.2583,-88.2131,3.742,17.22,1111122 
DISL,ioos:station:DISL:KATA:1,2019-01-10T12:30:00Z,30.2583,-88.2131,3.668,16.52,1111122 
DISL,ioos:station:DISL:KATA:1,2019-01-10T13:30:00Z,30.2583,-88.2131,3.644,16.87,1111122 
DISL,ioos:station:DISL:KATA:1,2019-01-10T14:30:00Z,30.2583,-88.2131,3.637,16.76,1111122 
DISL,ioos:station:DISL:KATA:1,2019-01-10T15:30:00Z,30.2583,-88.2131,3.673,15.78,1111122 
DISL,ioos:station:DISL:KATA:1,2019-01-10T16:30:00Z,30.2583,-88.2131,3.717,15.47,1111122 
DISL,ioos:station:DISL:KATA:1,2019-01-10T17:30:00Z,30.2583,-88.2131,3.763,16.64,1111122 
DISL,ioos:station:DISL:KATA:1,2019-01-10T18:30:00Z,30.2583,-88.2131,3.815,16.99,1111122 
DISL,ioos:station:DISL:KATA:1,2019-01-10T19:30:00Z,30.2583,-88.2131,3.879,17.24,1111122 
DISL,ioos:station:DISL:KATA:1,2019-01-10T20:30:00Z,30.2583,-88.2131,3.942,17.14,1111122 
DISL,ioos:station:DISL:KATA:1,2019-01-10T21:30:00Z,30.2583,-88.2131,3.975,15.77,1111122 
DISL,ioos:station:DISL:KATA:1,2019-01-10T22:30:00Z,30.2583,-88.2131,3.971,16.69,1111122 
DISL,ioos:station:DISL:KATA:1,2019-01-10T23:30:00Z,30.2583,-88.2131,3.933,16.36,1111122 
DISL,ioos:station:DISL:KATA:1,2019-01-11T00:30:00Z,30.2583,-88.2131,3.956,16.44,1111122 
DISL,ioos:station:DISL:KATA:1,2019-01-11T01:30:00Z,30.2583,-88.2131,3.997,16.8,1111122 
DISL,ioos:station:DISL:KATA:1,2019-01-11T02:30:00Z,30.2583,-88.2131,4.063,12.12,1111122 
DISL,ioos:station:DISL:KATA:1,2019-01-11T03:30:00Z,30.2583,-88.2131,4.076,14.7,1111122 
DISL,ioos:station:DISL:KATA:1,2019-01-11T04:30:00Z,30.2583,-88.2131,4.108,12.17,1111122 
DISL,ioos:station:DISL:KATA:1,2019-01-11T05:30:00Z,30.2583,-88.2131,4.118,12.46,1111122 
DISL,ioos:station:DISL:KATA:1,2019-01-11T06:30:00Z,30.2583,-88.2131,4.106,13.39,1111122 
DISL,ioos:station:DISL:KATA:1,2019-01-11T07:30:00Z,30.2583,-88.2131,4.091,14.74,1111122 
DISL,ioos:station:DISL:KATA:1,2019-01-11T08:30:00Z,30.2583,-88.2131,4.105,15.42,1111122 
DISL,ioos:station:DISL:KATA:1,2019-01-11T09:30:00Z,30.2583,-88.2131,4.09,16.11,1111122 
DISL,ioos:station:DISL:KATA:1,2019-01-11T10:30:00Z,30.2583,-88.2131,4.02,16.79,1111122 
DISL,ioos:station:DISL:KATA:1,2019-01-11T11:30:00Z,30.2583,-88.2131,3.894,17.35,1111122 
DISL,ioos:station:DISL:KATA:1,2019-01-11T12:30:00Z,30.2583,-88.2131,3.798,18.11,1111122 
DISL,ioos:station:DISL:KATA:1,2019-01-11T13:30:00Z,30.2583,-88.2131,3.78,18.7,1111122 
DISL,ioos:station:DISL:KATA:1,2019-01-11T14:30:00Z,30.2583,-88.2131,3.817,19.45,1111122 
DISL,ioos:station:DISL:KATA:1,2019-01-11T15:30:00Z,30.2583,-88.2131,3.859,20.1,1111122 
DISL,ioos:station:DISL:KATA:1,2019-01-11T16:30:00Z,30.2583,-88.2131,3.908,20.59,1111122 
DISL,ioos:station:DISL:KATA:1,2019-01-11T17:30:00Z,30.2583,-88.2131,3.939,21.13,1111122 
DISL,ioos:station:DISL:KATA:1,2019-01-11T18:30:00Z,30.2583,-88.2131,3.934,21.65,1111122 
DISL,ioos:station:DISL:KATA:1,2019-01-11T19:30:00Z,30.2583,-88.2131,3.943,21.99,1111122 
DISL,ioos:station:DISL:KATA:1,2019-01-11T20:30:00Z,30.2583,-88.2131,3.972,22.6,1111122 
DISL,ioos:station:DISL:KATA:1,2019-01-11T21:30:00Z,30.2583,-88.2131,4.017,23.07,1111122 
DISL,ioos:station:DISL:KATA:1,2019-01-11T22:30:00Z,30.2583,-88.2131,4.032,23.26,1111122 
DISL,ioos:station:DISL:KATA:1,2019-01-11T23:30:00Z,30.2583,-88.2131,4.014,23.49,1111122 
DISL,ioos:station:DISL:KATA:1,2019-01-12T00:30:00Z,30.2583,-88.2131,4.005,23.86,1111122 
DISL,ioos:station:DISL:KATA:1,2019-01-12T01:30:00Z,30.2583,-88.2131,4.022,24.03,1111122 
DISL,ioos:station:DISL:KATA:1,2019-01-12T02:30:00Z,30.2583,-88.2131,4.083,24.45,1111122 
DISL,ioos:station:DISL:KATA:1,2019-01-12T03:30:00Z,30.2583,-88.2131,4.137,24.9,1111122 
DISL,ioos:station:DISL:KATA:1,2019-01-12T04:30:00Z,30.2583,-88.2131,4.174,25.46,1111122 
DISL,ioos:station:DISL:KATA:1,2019-01-12T05:30:00Z,30.2583,-88.2131,4.189,25.74,1111122 
DISL,ioos:station:DISL:KATA:1,2019-01-12T06:30:00Z,30.2583,-88.2131,4.189,25.94,1111122 
DISL,ioos:station:DISL:KATA:1,2019-01-12T07:30:00Z,30.2583,-88.2131,4.176,26.18,1111122 
DISL,ioos:station:DISL:KATA:1,2019-01-12T08:30:00Z,30.2583,-88.2131,4.145,26.38,1111122 
DISL,ioos:station:DISL:KATA:1,2019-01-12T09:30:00Z,30.2583,-88.2131,4.119,26.5,1111122 
DISL,ioos:station:DISL:KATA:1,2019-01-12T10:30:00Z,30.2583,-88.2131,4.067,26.56,1111122 
DISL,ioos:station:DISL:KATA:1,2019-01-12T11:30:00Z,30.2583,-88.2131,4.038,26.75,1111122 
DISL,ioos:station:DISL:KATA:1,2019-01-12T12:30:00Z,30.2583,-88.2131,4.018,26.94,1111122 
DISL,ioos:station:DISL:KATA:1,2019-01-12T13:30:00Z,30.2583,-88.2131,4.016,27.05,1111122 
DISL,ioos:station:DISL:KATA:1,2019-01-12T14:30:00Z,30.2583,-88.2131,4.032,27.07,1111122 
DISL,ioos:station:DISL:KATA:1,2019-01-12T15:30:00Z,30.2583,-88.2131,4.035,26.96,1111122 
DISL,ioos:station:DISL:KATA:1,2019-01-12T16:30:00Z,30.2583,-88.2131,4.035,26.9,1111122 
DISL,ioos:station:DISL:KATA:1,2019-01-12T17:30:00Z,30.2583,-88.2131,4.074,26.85,1111122 
DISL,ioos:station:DISL:KATA:1,2019-01-12T18:30:00Z,30.2583,-88.2131,4.114,26.72,1111122 
DISL,ioos:station:DISL:KATA:1,2019-01-12T19:30:00Z,30.2583,-88.2131,4.161,26.58,1111122 
DISL,ioos:station:DISL:KATA:1,2019-01-12T20:30:00Z,30.2583,-88.2131,4.211,26.46,1111122 
DISL,ioos:station:DISL:KATA:1,2019-01-12T21:30:00Z,30.2583,-88.2131,4.22,26.43,1111122 
DISL,ioos:station:DISL:KATA:1,2019-01-12T22:30:00Z,30.2583,-88.2131,4.224,26.41,1111122 
DISL,ioos:station:DISL:KATA:1,2019-01-12T23:30:00Z,30.2583,-88.2131,4.237,26.32,1111122 
DISL,ioos:station:DISL:KATA:1,2019-01-13T00:30:00Z,30.2583,-88.2131,4.256,26.27,1111122 
DISL,ioos:station:DISL:KATA:1,2019-01-13T01:30:00Z,30.2583,-88.2131,4.267,26.26,1111122 
DISL,ioos:station:DISL:KATA:1,2019-01-13T02:30:00Z,30.2583,-88.2131,4.218,26.05,1111122 
DISL,ioos:station:DISL:KATA:1,2019-01-13T03:30:00Z,30.2583,-88.2131,4.226,25.88,1111122 
DISL,ioos:station:DISL:KATA:1,2019-01-13T04:30:00Z,30.2583,-88.2131,4.207,25.73,1111122 
DISL,ioos:station:DISL:KATA:1,2019-01-13T05:30:00Z,30.2583,-88.2131,4.185,25.64,1111122 
DISL,ioos:station:DISL:KATA:1,2019-01-13T06:30:00Z,30.2583,-88.2131,4.173,25.47,1111122 
DISL,ioos:station:DISL:KATA:1,2019-01-13T07:30:00Z,30.2583,-88.2131,4.155,25.47,1111122 
DISL,ioos:station:DISL:KATA:1,2019-01-13T08:30:00Z,30.2583,-88.2131,4.152,25.46,1111122 
DISL,ioos:station:DISL:KATA:1,2019-01-13T09:30:00Z,30.2583,-88.2131,4.123,25.71,1111122 